Location: A�t �Alizem
(31.2076°N, 8.7872°W)
Time: 19:10:41
(UTC+00:00)

Tiangong - Visible Passes

Search period start: 24 September 2021 00:00
Search period end: 04 October 2021 00:00
Orbit: 382 x 385 km, 41.5° (Epoch: 24 September)

Date Brightness Start Highest point End Pass type
(mag) Time Alt. Az. Time Alt. Az. Time Alt. Az.
24 Sep 4.3 04:21:05 11° ESE 04:21:05 11° ESE 04:21:24 10° ESE visible
24 Sep 1.0 05:53:35 10° WSW 05:56:44 76° NNW 05:59:54 10° ENE visible
25 Sep 1.6 04:56:41 49° SSE 04:56:53 50° SE 04:59:57 10° ENE visible
26 Sep 1.8 05:32:09 21° W 05:33:47 39° NNW 05:36:47 10° NE visible
27 Sep 3.1 04:35:20 28° NE 04:35:20 28° NE 04:36:59 10° ENE visible
28 Sep 2.6 05:10:38 24° NNW 05:10:54 24° NNW 05:13:34 10° NE visible
29 Sep 4.5 04:13:41 11° NE 04:13:41 11° NE 04:13:51 10° NE visible
29 Sep 3.5 05:46:24 10° NW 05:48:13 14° N 05:50:03 10° NNE visible
30 Sep 3.5 04:48:53 16° N 04:48:53 16° N 04:50:17 10° NNE visible
01 Oct 3.6 05:24:03 10° NNW 05:25:28 13° N 05:27:00 10° NNE visible
02 Oct 4.3 04:27:01 10° NNE 04:27:01 10° NNE 04:27:04 10° NNE visible
02 Oct 3.6 06:01:02 10° NNW 06:02:55 15° N 06:04:48 10° NE visible
03 Oct 3.6 05:02:12 13° N 05:02:43 13° N 05:04:17 10° NNE visible
